Location: Harwich
(41.7160°N, 69.9939°W)
Time: 23:05:42
(UTC+02:00)

SO-50 - Visible Passes

Search period start: 13 September 2024 00:00
Search period end: 23 September 2024 00:00
Orbit: 612 x 649 km, 64.6° (Epoch: 13 September)

Date Brightness Start Highest point End Pass type
(mag) Time Alt. Az. Time Alt. Az. Time Alt. Az.
15 Sep ? 11:42:46 10° N 11:44:44 12° NE 11:46:41 10° ENE visible
18 Sep ? 11:04:50 10° N 11:07:23 15° NE 11:09:56 10° ENE visible
19 Sep ? 11:24:50 10° NNW 11:28:39 26° NE 11:32:28 10° ESE visible
20 Sep ? 11:45:17 10° NNW 11:49:42 52° NE 11:54:07 10° SE visible
21 Sep ? 10:26:54 10° N 10:29:54 17° NE 10:32:55 10° E visible
22 Sep ? 10:47:02 10° NNW 10:51:04 31° NE 10:55:07 10° ESE visible
